Location: Stilling
(56.0622°N, 9.9882°E)
Time: 13:16:31
(UTC+00:00)

ATLAS 5 CENTAUR R/B - Pass Details

Date: 13 July 2020
Orbit: 534 x 1124 km, 63.4° (Epoch: 03 August)

Event Time Altitude Azimuth Distance (km) Brightness Sun altitude
Rises 22:03:17 0° 283° (WNW) 2,921 5.5 -10.3°
Reaches altitude 10° 22:05:35 10° 292° (WNW) 2,088 4.9 -10.4°
Maximum altitude 22:10:00 37° 0° (N) 1,145 3.6 -10.6°
Drops below altitude 10° 22:15:08 10° 67° (ENE) 2,439 4.7 -10.9°
Sets 22:18:01 0° 76° (ENE) 3,483 5.4 -11.0°
